TIANWANG 1B (TW-1B)
1 40927U 15051C   19118.53683781  .00009433  00000-0  15210-3 0  9996
2 40927  97.1443 164.2650 0007783 199.3779 266.9196 15.53098645202072
TIANWANG 1A (TW-1A)
1 40928U 15051D   19118.38290956  .00002937  00000-0  74454-4 0  9996
2 40928  97.1511 150.8205 0009168 257.1293 228.1561 15.40459463201271
LAPAN A2
1 40931U 15052B   19118.21878090  .00000596  00000-0 -60256-5 0  9990
2 40931   5.9967  63.6316 0012337 142.7102 217.4152 14.76603759193646
LQSAT
1 40958U 15057A   19118.21169567 -.00000012  00000-0  57521-5 0  9990
2 40958  97.9019 188.7883 0019204  49.8965 310.3923 14.73074754191221
CHUBUSAT 2
1 41338U 16012B   19118.19101767  .00000310  00000-0  17392-4 0  9991
2 41338  31.0024 112.0555 0013810 312.9198  47.0278 15.00129814175176
CHUBUSAT 3
1 41339U 16012C   19118.36615475  .00000288  00000-0  15601-4 0  9992
2 41339  31.0091 109.1047 0013733 322.1575  37.8094 15.00306816175194
OUFTI-1
1 41458U 16025C   19118.21989033  .00001389  00000-0  74519-4 0  9992
2 41458  98.1015 202.4578 0167642 169.5817 190.8954 15.05624867164831
E-STAR-2
1 41459U 16025D   19118.42370366  .00001889  00000-0  10008-3 0  9996
2 41459  98.1024 202.3639 0169418 170.0697 190.3927 15.05285108164831
AAUSAT 4
1 41460U 16025E   19118.46238772  .00002172  00000-0  11261-3 0  9994
2 41460  98.0956 203.5201 0158896 163.3442 197.3110 15.07083459164956
NUSAT 1
1 41557U 16033B   19118.47700427  .00001273  00000-0  50585-4 0  9996
2 41557  97.4173 206.2813 0015482 116.4467 243.8362 15.27076158162274
BEESAT 4
1 41619U 16040W   19118.46631008  .00001234  00000-0  55437-4 0  9998
2 41619  97.3719 181.6354 0010926 195.2535 164.8373 15.22975478146064
PRATHAM
1 41783U 16059A   19118.16715086  .00000048  00000-0  18515-4 0  9994
2 41783  98.0723 178.8734 0033572 183.7258 176.3699 14.62986133138013
ALSAT 1N
1 41789U 16059G   19118.40472963  .00000095  00000-0  27098-4 0  9999
2 41789  98.0729 180.9876 0028397 172.3802 187.7838 14.64233237138141
NAYIF 1
1 42017U 17008BX  19118.46656534  .00001356  00000-0  56597-4 0  9990
2 42017  97.4069 186.0817 0006097   6.6670 353.4647 15.25369306122118
MAX VALIER SAT
1 42778U 17036P   19118.37770500  .00000916  00000-0  43185-4 0  9995
2 42778  97.3594 177.1624 0013695  50.6499 309.5949 15.21910504102439
